Hourly Data Report for August 04, 2021

KUGLUKTUK A
NUNAVUT
Current Station Operator: NAVCAN

67°49'00.000" N
115°08'38.000" W
22.60 m
2300903
71938
YCO

Download Data

Hourly Data (August 2021)
Hourly Data Report for August 4, 2021
TIME
LST
Temp Definition
°C
Dew Point Definition
°C
Rel Hum Definition
%
Precip. Amount Definition
mm

Wind Dir Definition
10's deg

Wind Spd Definition
km/h
Visibility Definition
km
Stn Press Definition
kPa
Hmdx Definition


Wind Chill Definition


Weather Definition


00:00 6.0 2.6 79   29 4 24.1 101.71     LegendNANA
01:00 5.6 2.4 80   29 14 24.1 101.68     LegendNANA
02:00 5.7 2.6 81   27 15 24.1 101.67     Mainly Clear
03:00 4.4 2.5 88   28 14 24.1 101.69     LegendNANA
04:00 4.8 2.3 83   28 16 24.1 101.70     LegendNANA
05:00 5.2 2.1 80   28 17 24.1 101.69     Cloudy
06:00 5.0 2.0 81   27 10 24.1 101.69     LegendNANA
07:00 5.8 2.1 77   31 35 24.1 101.67     LegendNANA
08:00 5.8 2.5 79   32 31 24.1 101.66     Cloudy
09:00 5.8 2.3 78   31 28 24.1 101.67     LegendNANA
10:00 5.7 2.9 82   29 20 24.1 101.67     LegendNANA
11:00 5.5 3.5 87   29 27 24.1 101.66     Rain
12:00 6.1 3.5 83   29 23 24.1 101.66     LegendNANA
13:00 6.8 3.4 79   32 27 24.1 101.64     LegendNANA
14:00 7.2 3.2 76   33 28 24.1 101.63     Cloudy
15:00 6.7 3.4 80   34 30 24.1 101.63     LegendNANA
16:00 6.4 3.5 81   33 26 19.3 101.62     LegendNANA
17:00 6.3 3.5 82   32 25 19.3 101.62     Cloudy
18:00 6.6 3.5 81   32 25 16.1 101.58     LegendNANA
19:00 6.6 3.3 80   31 23 11.3 101.57     LegendNANA
20:00 6.4 3.4 81   30 13 6.4 101.55     Smoke
21:00 5.9 3.6 85   27 8 6.4 101.51     Smoke
22:00 6.4 3.7 83   25 11 6.4 101.46     Smoke
23:00 6.2 3.7 84   25 16 4.8 101.43     Smoke

Notes on Data Quality.

Legend

  • E = Estimated
  • M = Missing
  • NA = Not Available*
  • [empty] = Indicates an unobserved value
Date modified: